Time,TemperatureF,DewpointF,PressureIn,WindDirection,WindDirectionDegrees,WindSpeedMPH,WindSpeedGustMPH,Humidity,HourlyPrecipIn,Conditions,Clouds,dailyrainin,SoftwareType,DateUTC
2013-02-06 00:02:00,30.0,29.0,29.90,NNE,20,0.0,0.0,95,-99.99,,,-99.99,,2013-02-06 05:02:00,
2013-02-06 00:12:00,30.0,29.0,29.90,NNE,20,0.0,0.0,95,-99.99,,,-99.99,,2013-02-06 05:12:00,
2013-02-06 00:22:00,29.0,28.0,29.89,NE,41,0.0,0.0,95,-99.99,,,-99.99,,2013-02-06 05:22:00,
2013-02-06 00:32:00,29.0,28.0,29.89,NE,41,0.0,0.0,95,-99.99,,,-99.99,,2013-02-06 05:32:00,
2013-02-06 00:42:00,29.0,28.0,29.89,NE,41,0.0,0.0,95,-99.99,,,-99.99,,2013-02-06 05:42:00,
2013-02-06 00:53:00,29.0,28.0,29.88,NE,45,0.0,4.0,95,-99.99,,,-99.99,,2013-02-06 05:53:00,
2013-02-06 01:01:00,29.0,28.0,29.88,NE,45,0.0,4.0,95,-99.99,,,-99.99,,2013-02-06 06:01:00,
2013-02-06 01:11:00,29.0,28.0,29.88,NE,45,0.0,4.0,95,-99.99,,,-99.99,,2013-02-06 06:11:00,
2013-02-06 01:22:00,29.0,28.0,29.88,East,79,0.0,3.0,95,-99.99,,,-99.99,,2013-02-06 06:22:00,
2013-02-06 01:32:00,29.0,28.0,29.88,East,79,0.0,3.0,95,-99.99,,,-99.99,,2013-02-06 06:32:00,
2013-02-06 01:42:00,29.0,28.0,29.88,East,79,0.0,3.0,95,-99.99,,,-99.99,,2013-02-06 06:42:00,
2013-02-06 01:52:00,29.0,28.0,29.88,NNE,23,0.0,3.0,95,-99.99,,,-99.99,,2013-02-06 06:52:00,
2013-02-06 02:01:00,29.0,28.0,29.88,NNE,23,0.0,3.0,95,-99.99,,,-99.99,,2013-02-06 07:01:00,
2013-02-06 02:11:00,29.0,28.0,29.88,NNE,23,0.0,3.0,95,-99.99,,,-99.99,,2013-02-06 07:11:00,
2013-02-06 02:22:00,29.0,28.0,29.88,ENE,61,0.0,4.0,95,-99.99,,,-99.99,,2013-02-06 07:22:00,
2013-02-06 02:32:00,29.0,28.0,29.88,ENE,61,0.0,4.0,95,-99.99,,,-99.99,,2013-02-06 07:32:00,
2013-02-06 02:42:00,29.0,28.0,29.88,ENE,61,0.0,4.0,95,-99.99,,,-99.99,,2013-02-06 07:42:00,
2013-02-06 02:52:00,29.0,28.0,29.88,ENE,60,0.0,1.0,95,-99.99,,,-99.99,,2013-02-06 07:52:00,
2013-02-06 03:01:00,29.0,28.0,29.88,ENE,60,0.0,1.0,95,-99.99,,,-99.99,,2013-02-06 08:01:00,
2013-02-06 03:11:00,29.0,28.0,29.88,ENE,60,0.0,1.0,95,-99.99,,,-99.99,,2013-02-06 08:11:00,
2013-02-06 03:21:00,29.0,28.0,29.89,ENE,59,0.0,1.0,95,-99.99,,,-99.99,,2013-02-06 08:21:00,
2013-02-06 03:31:00,29.0,28.0,29.89,ENE,59,0.0,1.0,95,-99.99,,,-99.99,,2013-02-06 08:31:00,
2013-02-06 03:42:00,29.0,28.0,29.89,ENE,59,0.0,1.0,95,-99.99,,,-99.99,,2013-02-06 08:42:00,
2013-02-06 03:53:00,29.0,28.0,29.89,West,262,0.0,2.0,95,-99.99,,,-99.99,,2013-02-06 08:53:00,
2013-02-06 04:01:00,29.0,28.0,29.89,West,262,0.0,2.0,95,-99.99,,,-99.99,,2013-02-06 09:01:00,
2013-02-06 04:11:00,29.0,28.0,29.89,West,262,0.0,2.0,95,-99.99,,,-99.99,,2013-02-06 09:11:00,
2013-02-06 04:21:00,29.0,28.0,29.90,West,262,0.0,0.0,95,-99.99,,,-99.99,,2013-02-06 09:21:00,
2013-02-06 04:32:00,29.0,28.0,29.90,West,262,0.0,0.0,95,-99.99,,,-99.99,,2013-02-06 09:32:00,
2013-02-06 04:42:00,29.0,28.0,29.90,West,262,0.0,0.0,95,-99.99,,,-99.99,,2013-02-06 09:42:00,
2013-02-06 04:52:00,28.0,27.0,29.91,West,263,0.0,0.0,95,-99.99,,,-99.99,,2013-02-06 09:52:00,
2013-02-06 05:01:00,28.0,27.0,29.91,West,263,0.0,0.0,95,-99.99,,,-99.99,,2013-02-06 10:01:00,
2013-02-06 05:11:00,28.0,27.0,29.91,West,263,0.0,0.0,95,-99.99,,,-99.99,,2013-02-06 10:11:00,
2013-02-06 05:21:00,28.0,27.0,29.92,West,262,0.0,0.0,95,-99.99,,,-99.99,,2013-02-06 10:21:00,
2013-02-06 05:31:00,28.0,27.0,29.92,West,262,0.0,0.0,95,-99.99,,,-99.99,,2013-02-06 10:31:00,
2013-02-06 05:42:00,28.0,27.0,29.92,West,262,0.0,0.0,95,-99.99,,,-99.99,,2013-02-06 10:42:00,
2013-02-06 05:52:00,27.0,26.0,29.93,West,262,0.0,0.0,95,-99.99,,,-99.99,,2013-02-06 10:52:00,
2013-02-06 06:01:00,27.0,26.0,29.93,West,262,0.0,0.0,95,-99.99,,,-99.99,,2013-02-06 11:01:00,
2013-02-06 06:11:00,27.0,26.0,29.93,West,262,0.0,0.0,95,-99.99,,,-99.99,,2013-02-06 11:11:00,
2013-02-06 06:22:00,28.0,27.0,29.94,West,263,0.0,0.0,95,-99.99,,,-99.99,,2013-02-06 11:22:00,
2013-02-06 06:32:00,28.0,27.0,29.94,West,263,0.0,0.0,95,-99.99,,,-99.99,,2013-02-06 11:32:00,
2013-02-06 06:42:00,28.0,27.0,29.94,West,263,0.0,0.0,95,-99.99,,,-99.99,,2013-02-06 11:42:00,
2013-02-06 06:53:00,28.0,27.0,29.96,NW,312,0.0,0.0,95,-99.99,,,-99.99,,2013-02-06 11:53:00,
2013-02-06 07:02:00,28.0,27.0,29.96,NW,312,0.0,0.0,95,-99.99,,,-99.99,,2013-02-06 12:02:00,
2013-02-06 07:12:00,28.0,27.0,29.96,NW,312,0.0,0.0,95,-99.99,,,-99.99,,2013-02-06 12:12:00,
2013-02-06 07:22:00,29.0,28.0,29.97,ESE,113,2.0,4.0,95,-99.99,,,-99.99,,2013-02-06 12:22:00,
2013-02-06 07:32:00,29.0,28.0,29.97,ESE,113,2.0,4.0,95,-99.99,,,-99.99,,2013-02-06 12:32:00,
2013-02-06 07:42:00,29.0,28.0,29.97,ESE,113,2.0,4.0,95,-99.99,,,-99.99,,2013-02-06 12:42:00,
2013-02-06 07:52:00,28.0,27.0,29.98,NNW,332,3.0,3.0,95,-99.99,,,-99.99,,2013-02-06 12:52:00,
2013-02-06 08:01:00,28.0,27.0,29.98,NNW,332,3.0,3.0,95,-99.99,,,-99.99,,2013-02-06 13:01:00,
2013-02-06 08:12:00,28.0,27.0,29.98,NNW,332,3.0,3.0,95,-99.99,,,-99.99,,2013-02-06 13:12:00,
2013-02-06 08:22:00,29.0,28.0,30.00,WNW,297,0.0,2.0,95,-99.99,,,-99.99,,2013-02-06 13:22:00,
2013-02-06 08:32:00,29.0,28.0,30.00,WNW,297,0.0,2.0,95,-99.99,,,-99.99,,2013-02-06 13:32:00,
2013-02-06 08:42:00,29.0,28.0,30.00,WNW,297,0.0,2.0,95,-99.99,,,-99.99,,2013-02-06 13:42:00,
2013-02-06 08:52:00,30.0,28.0,30.02,SE,146,0.0,2.0,94,-99.99,,,-99.99,,2013-02-06 13:52:00,
2013-02-06 09:02:00,30.0,28.0,30.02,SE,146,0.0,2.0,94,-99.99,,,-99.99,,2013-02-06 14:02:00,
2013-02-06 09:11:00,31.0,29.0,30.02,NNW,340,0.0,5.0,93,-99.99,,,-99.99,,2013-02-06 14:11:00,
2013-02-06 09:22:00,31.0,29.0,30.02,NNW,340,0.0,5.0,93,-99.99,,,-99.99,,2013-02-06 14:22:00,
2013-02-06 09:32:00,31.0,29.0,30.02,NNW,340,0.0,5.0,93,-99.99,,,-99.99,,2013-02-06 14:32:00,
2013-02-06 09:42:00,33.0,29.0,30.02,North,11,3.0,5.0,86,-99.99,,,-99.99,,2013-02-06 14:42:00,
2013-02-06 09:52:00,33.0,29.0,30.02,North,11,3.0,5.0,86,-99.99,,,-99.99,,2013-02-06 14:52:00,
2013-02-06 10:02:00,33.0,29.0,30.02,North,11,3.0,5.0,86,-99.99,,,-99.99,,2013-02-06 15:02:00,
2013-02-06 10:11:00,35.0,30.0,30.02,WNW,291,1.0,4.0,81,-99.99,,,-99.99,,2013-02-06 15:11:00,
2013-02-06 10:21:00,35.0,30.0,30.02,WNW,291,1.0,4.0,81,-99.99,,,-99.99,,2013-02-06 15:21:00,
2013-02-06 10:31:00,35.0,30.0,30.02,WNW,291,1.0,4.0,81,-99.99,,,-99.99,,2013-02-06 15:31:00,
2013-02-06 10:42:00,35.0,28.0,30.05,West,270,1.0,8.0,76,-99.99,,,-99.99,,2013-02-06 15:42:00,
2013-02-06 10:52:00,35.0,28.0,30.05,West,270,1.0,8.0,76,-99.99,,,-99.99,,2013-02-06 15:52:00,
2013-02-06 11:01:00,35.0,28.0,30.05,West,270,1.0,8.0,76,-99.99,,,-99.99,,2013-02-06 16:01:00,
2013-02-06 11:11:00,35.0,28.0,30.05,West,270,1.0,8.0,76,-99.99,,,-99.99,,2013-02-06 16:11:00,
2013-02-06 11:21:00,35.0,27.0,30.05,WNW,297,2.0,7.0,73,-99.99,,,-99.99,,2013-02-06 16:21:00,
2013-02-06 11:32:00,35.0,27.0,30.05,WNW,297,2.0,7.0,73,-99.99,,,-99.99,,2013-02-06 16:32:00,
2013-02-06 11:42:00,35.0,27.0,30.05,WNW,297,2.0,7.0,73,-99.99,,,-99.99,,2013-02-06 16:42:00,
2013-02-06 11:52:00,37.0,28.0,30.04,West,270,2.0,7.0,70,-99.99,,,-99.99,,2013-02-06 16:52:00,
2013-02-06 12:02:00,37.0,28.0,30.04,West,270,2.0,7.0,70,-99.99,,,-99.99,,2013-02-06 17:02:00,
2013-02-06 12:12:00,37.0,27.0,30.03,WNW,282,1.0,10.0,67,-99.99,,,-99.99,,2013-02-06 17:12:00,
2013-02-06 12:22:00,37.0,27.0,30.03,WNW,282,1.0,10.0,67,-99.99,,,-99.99,,2013-02-06 17:22:00,
2013-02-06 12:32:00,37.0,27.0,30.03,WNW,282,1.0,10.0,67,-99.99,,,-99.99,,2013-02-06 17:32:00,
2013-02-06 12:42:00,38.0,27.0,30.03,North,352,2.0,9.0,65,-99.99,,,-99.99,,2013-02-06 17:42:00,
2013-02-06 12:52:00,38.0,27.0,30.03,North,352,2.0,9.0,65,-99.99,,,-99.99,,2013-02-06 17:52:00,
2013-02-06 13:01:00,38.0,27.0,30.03,North,352,2.0,9.0,65,-99.99,,,-99.99,,2013-02-06 18:01:00,
2013-02-06 13:12:00,36.0,23.0,30.04,NW,307,1.0,10.0,60,-99.99,,,-99.99,,2013-02-06 18:12:00,
2013-02-06 13:23:00,36.0,23.0,30.04,NW,307,1.0,10.0,60,-99.99,,,-99.99,,2013-02-06 18:23:00,
2013-02-06 13:32:00,36.0,23.0,30.04,NW,307,1.0,10.0,60,-99.99,,,-99.99,,2013-02-06 18:32:00,
2013-02-06 13:42:00,36.0,23.0,30.04,NW,307,1.0,10.0,60,-99.99,,,-99.99,,2013-02-06 18:42:00,
2013-02-06 13:52:00,36.0,24.0,30.05,WSW,245,3.0,8.0,62,-99.99,,,-99.99,,2013-02-06 18:52:00,
2013-02-06 14:01:00,36.0,24.0,30.05,WSW,245,3.0,8.0,62,-99.99,,,-99.99,,2013-02-06 19:01:00,
2013-02-06 14:11:00,36.0,24.0,30.05,WSW,245,3.0,8.0,62,-99.99,,,-99.99,,2013-02-06 19:11:00,
2013-02-06 14:21:00,37.0,24.0,30.05,WSW,249,4.0,12.0,58,-99.99,,,-99.99,,2013-02-06 19:21:00,
2013-02-06 14:32:00,37.0,24.0,30.05,WSW,249,4.0,12.0,58,-99.99,,,-99.99,,2013-02-06 19:32:00,
2013-02-06 14:42:00,37.0,24.0,30.05,WSW,249,4.0,12.0,58,-99.99,,,-99.99,,2013-02-06 19:42:00,
2013-02-06 14:52:00,36.0,24.0,30.06,NW,308,2.0,15.0,61,-99.99,,,-99.99,,2013-02-06 19:52:00,
2013-02-06 15:01:00,36.0,24.0,30.06,NW,308,2.0,15.0,61,-99.99,,,-99.99,,2013-02-06 20:01:00,
2013-02-06 15:11:00,36.0,23.0,30.07,WNW,301,3.0,10.0,60,-99.99,,,-99.99,,2013-02-06 20:11:00,
2013-02-06 15:21:00,36.0,23.0,30.07,WNW,301,3.0,10.0,60,-99.99,,,-99.99,,2013-02-06 20:21:00,
2013-02-06 15:32:00,36.0,23.0,30.07,WNW,301,3.0,10.0,60,-99.99,,,-99.99,,2013-02-06 20:32:00,
2013-02-06 15:42:00,36.0,23.0,30.07,WNW,301,3.0,10.0,60,-99.99,,,-99.99,,2013-02-06 20:42:00,
2013-02-06 15:52:00,37.0,23.0,30.08,NNW,344,4.0,12.0,57,-99.99,,,-99.99,,2013-02-06 20:52:00,
2013-02-06 16:02:00,37.0,23.0,30.08,NNW,344,4.0,12.0,57,-99.99,,,-99.99,,2013-02-06 21:02:00,
2013-02-06 16:11:00,37.0,23.0,30.08,NNW,344,4.0,12.0,57,-99.99,,,-99.99,,2013-02-06 21:11:00,
2013-02-06 16:21:00,37.0,23.0,30.09,NW,305,5.0,10.0,56,-99.99,,,-99.99,,2013-02-06 21:21:00,
2013-02-06 16:32:00,37.0,23.0,30.09,NW,305,5.0,10.0,56,-99.99,,,-99.99,,2013-02-06 21:32:00,
2013-02-06 16:42:00,37.0,23.0,30.09,NW,305,5.0,10.0,56,-99.99,,,-99.99,,2013-02-06 21:42:00,
2013-02-06 16:52:00,36.0,22.0,30.10,NW,322,2.0,10.0,57,-99.99,,,-99.99,,2013-02-06 21:52:00,
2013-02-06 17:01:00,36.0,22.0,30.10,NW,322,2.0,10.0,57,-99.99,,,-99.99,,2013-02-06 22:01:00,
2013-02-06 17:11:00,36.0,22.0,30.10,NW,322,2.0,10.0,57,-99.99,,,-99.99,,2013-02-06 22:11:00,
2013-02-06 17:21:00,36.0,23.0,30.12,NW,309,7.0,10.0,59,-99.99,,,-99.99,,2013-02-06 22:21:00,
2013-02-06 17:31:00,36.0,23.0,30.12,NW,309,7.0,10.0,59,-99.99,,,-99.99,,2013-02-06 22:31:00,
2013-02-06 17:42:00,36.0,23.0,30.12,NW,309,7.0,10.0,59,-99.99,,,-99.99,,2013-02-06 22:42:00,
2013-02-06 17:52:00,35.0,23.0,30.14,NW,319,1.0,8.0,60,-99.99,,,-99.99,,2013-02-06 22:52:00,
2013-02-06 18:01:00,35.0,23.0,30.14,NW,319,1.0,8.0,60,-99.99,,,-99.99,,2013-02-06 23:01:00,
2013-02-06 18:11:00,35.0,23.0,30.14,NW,319,1.0,8.0,60,-99.99,,,-99.99,,2013-02-06 23:11:00,
2013-02-06 18:21:00,34.0,22.0,30.15,North,8,0.0,5.0,60,-99.99,,,-99.99,,2013-02-06 23:21:00,
2013-02-06 18:32:00,34.0,22.0,30.15,North,8,0.0,5.0,60,-99.99,,,-99.99,,2013-02-06 23:32:00,
2013-02-06 18:42:00,34.0,22.0,30.15,North,8,0.0,5.0,60,-99.99,,,-99.99,,2013-02-06 23:42:00,
2013-02-06 18:52:00,33.0,21.0,30.17,WNW,295,0.0,5.0,61,-99.99,,,-99.99,,2013-02-06 23:52:00,
2013-02-06 19:01:00,33.0,21.0,30.17,WNW,295,0.0,5.0,61,-99.99,,,-99.99,,2013-02-07 00:01:00,
2013-02-06 19:11:00,33.0,21.0,30.17,WNW,295,0.0,5.0,61,-99.99,,,-99.99,,2013-02-07 00:11:00,
2013-02-06 19:21:00,33.0,19.0,30.20,WNW,300,1.0,8.0,57,-99.99,,,-99.99,,2013-02-07 00:21:00,
2013-02-06 19:32:00,33.0,19.0,30.20,WNW,300,1.0,8.0,57,-99.99,,,-99.99,,2013-02-07 00:32:00,
2013-02-06 19:42:00,33.0,18.0,30.20,SW,225,2.0,9.0,54,-99.99,,,-99.99,,2013-02-07 00:42:00,
2013-02-06 19:52:00,33.0,18.0,30.20,SW,225,2.0,9.0,54,-99.99,,,-99.99,,2013-02-07 00:52:00,
2013-02-06 20:01:00,33.0,18.0,30.20,SW,225,2.0,9.0,54,-99.99,,,-99.99,,2013-02-07 01:01:00,
2013-02-06 20:11:00,33.0,18.0,30.20,SW,225,2.0,9.0,54,-99.99,,,-99.99,,2013-02-07 01:11:00,
2013-02-06 20:21:00,32.0,18.0,30.23,NW,325,1.0,7.0,55,-99.99,,,-99.99,,2013-02-07 01:21:00,
2013-02-06 20:32:00,32.0,18.0,30.23,NW,325,1.0,7.0,55,-99.99,,,-99.99,,2013-02-07 01:32:00,
2013-02-06 20:42:00,32.0,18.0,30.23,NW,325,1.0,7.0,55,-99.99,,,-99.99,,2013-02-07 01:42:00,
2013-02-06 20:52:00,32.0,18.0,30.24,NW,308,1.0,5.0,56,-99.99,,,-99.99,,2013-02-07 01:52:00,
2013-02-06 21:01:00,32.0,18.0,30.24,NW,308,1.0,5.0,56,-99.99,,,-99.99,,2013-02-07 02:01:00,
2013-02-06 21:12:00,32.0,18.0,30.24,NW,308,1.0,5.0,56,-99.99,,,-99.99,,2013-02-07 02:12:00,
2013-02-06 21:21:00,31.0,17.0,30.25,WSW,245,0.0,7.0,55,-99.99,,,-99.99,,2013-02-07 02:21:00,
2013-02-06 21:32:00,31.0,17.0,30.25,WSW,245,0.0,7.0,55,-99.99,,,-99.99,,2013-02-07 02:32:00,
2013-02-06 21:42:00,31.0,17.0,30.25,WSW,245,0.0,7.0,55,-99.99,,,-99.99,,2013-02-07 02:42:00,
2013-02-06 21:52:00,31.0,17.0,30.25,WSW,245,0.0,7.0,55,-99.99,,,-99.99,,2013-02-07 02:52:00,
2013-02-06 22:02:00,31.0,17.0,30.27,WNW,283,3.0,7.0,56,-99.99,,,-99.99,,2013-02-07 03:02:00,
2013-02-06 22:11:00,30.0,17.0,30.27,WSW,239,3.0,5.0,57,-99.99,,,-99.99,,2013-02-07 03:11:00,
2013-02-06 22:21:00,30.0,17.0,30.27,WSW,239,3.0,5.0,57,-99.99,,,-99.99,,2013-02-07 03:21:00,
2013-02-06 22:31:00,30.0,17.0,30.27,WSW,239,3.0,5.0,57,-99.99,,,-99.99,,2013-02-07 03:31:00,
2013-02-06 22:42:00,30.0,17.0,30.27,WSW,239,3.0,5.0,57,-99.99,,,-99.99,,2013-02-07 03:42:00,
2013-02-06 22:52:00,30.0,16.0,30.28,West,262,1.0,5.0,56,-99.99,,,-99.99,,2013-02-07 03:52:00,
2013-02-06 23:01:00,30.0,16.0,30.28,West,262,1.0,5.0,56,-99.99,,,-99.99,,2013-02-07 04:01:00,
2013-02-06 23:11:00,30.0,16.0,30.28,West,262,1.0,5.0,56,-99.99,,,-99.99,,2013-02-07 04:11:00,
2013-02-06 23:22:00,29.0,14.0,30.29,East,84,2.0,5.0,54,-99.99,,,-99.99,,2013-02-07 04:22:00,
2013-02-06 23:32:00,29.0,14.0,30.29,East,84,2.0,5.0,54,-99.99,,,-99.99,,2013-02-07 04:32:00,
2013-02-06 23:42:00,29.0,14.0,30.29,East,84,2.0,5.0,54,-99.99,,,-99.99,,2013-02-07 04:42:00,
2013-02-06 23:53:00,28.0,14.0,30.31,WNW,288,2.0,5.0,54,-99.99,,,-99.99,,2013-02-07 04:53:00,